Weather History for KGAD - February, 2013

Change the Weather History Date:

Friday, February 1, 2013

  Actual Average Record
Temperature  
Mean Temperature 33 °F -  
Max Temperature 42 °F 51 °F 72 °F (1950)
Min Temperature 24 °F 32 °F 0 °F (1936)
Degree Days  
Heating Degree Days 32    
Moisture  
Dew Point 16 °F    
Average Humidity 50    
Maximum Humidity 74    
Minimum Humidity 28    
Precipitation  
Precipitation 0.00 in - - ()
Sea Level Pressure  
Sea Level Pressure 30.35 in    
Wind  
Wind Speed 7 mph (NW)    
Max Wind Speed 18 mph    
Max Gust Speed 28 mph    
Visibility 10 miles    
Events      
Averages and records for this station are not official NWS values.
T = Trace of Precipitation, MM = Missing Value Source: NWS Daily Summary

Daily Weather History Graph

Daily Weather History Graph

Search for Another Location

Airport or City:

Trip Planner

Search our weather history database for the weather conditions in past years. The results will help you decide how hot, cold, wet, or windy it might be!

Date:

Astronomy

Feb. 01, 2013 Rise Set
Actual Time 6:41 AM CST 5:15 PM CST
Civil Twilight 6:14 AM CST 5:41 PM CST
Nautical Twilight 5:45 AM CST 6:11 PM CST
Astronomical Twilight 5:15 AM CST 6:40 PM CST
Moon 11:01 PM CST (2/1) 9:32 AM CST (2/1)
Length of Visible Light 11h 26m
Length of Day
10h 34m
Waning Gibbous, 70% of the Moon is Illuminated
Feb 1
Waning Gibbous
Feb 3
Last Quarter
Feb 10
New
Feb 17
First Quarter
Feb 25
Full

Hourly Weather History & Observations

Time (CST) Temp. Windchill Dew Point Humidity Pressure Visibility Wind Dir Wind Speed Gust Speed Precip Events Conditions
12:15 AM 41.0 °F 38.0 °F 24.8 °F 53% 30.15 in 10.0 mi WSW 4.6 mph - N/A   Clear
12:35 AM 39.2 °F 35.9 °F 24.8 °F 56% 30.15 in 10.0 mi WSW 4.6 mph - N/A   Clear
1:15 AM 37.4 °F 31.4 °F 26.6 °F 65% 30.19 in 10.0 mi NW 8.1 mph - N/A   Clear
1:35 AM 42.8 °F 35.4 °F 26.6 °F 53% 30.19 in 10.0 mi West 15.0 mph 21.9 mph N/A   Clear
1:55 AM 42.8 °F 36.6 °F 26.6 °F 53% 30.19 in 10.0 mi West 11.5 mph 20.7 mph N/A   Clear
2:15 AM 42.8 °F 36.6 °F 26.6 °F 53% 30.19 in 10.0 mi WNW 11.5 mph 16.1 mph N/A   Clear
2:35 AM 42.8 °F 37.0 °F 28.4 °F 57% 30.19 in 10.0 mi WNW 10.4 mph 16.1 mph N/A   Clear
2:55 AM 41.0 °F 35.8 °F 28.4 °F 61% 30.20 in 10.0 mi WNW 8.1 mph - N/A   Clear
3:15 AM 41.0 °F 35.8 °F 28.4 °F 61% 30.21 in 10.0 mi WNW 8.1 mph - N/A   Clear
3:35 AM 41.0 °F 32.2 °F 30.2 °F 65% 30.22 in 10.0 mi NW 18.4 mph 24.2 mph N/A   Mostly Cloudy
3:55 AM 39.2 °F 30.2 °F 30.2 °F 70% 30.23 in 10.0 mi NNW 17.3 mph 24.2 mph N/A   Overcast
4:15 AM 37.4 °F 27.5 °F 26.6 °F 65% 30.25 in 10.0 mi North 18.4 mph 23.0 mph N/A   Scattered Clouds
4:35 AM 35.6 °F 27.1 °F 10.4 °F 35% 30.28 in 10.0 mi NW 12.7 mph 27.6 mph N/A   Clear
4:55 AM 33.8 °F 27.0 °F 8.6 °F 35% 30.29 in 10.0 mi NW 8.1 mph - N/A   Clear
5:15 AM 32.0 °F 25.6 °F 10.4 °F 41% 30.31 in 10.0 mi WNW 6.9 mph - N/A   Clear
5:35 AM 30.2 °F 21.9 °F 12.2 °F 47% 30.32 in 10.0 mi NW 9.2 mph - N/A   Clear
6:15 AM 30.2 °F 22.6 °F 15.8 °F 55% 30.34 in 10.0 mi NW 8.1 mph - N/A   Clear
6:35 AM 28.4 °F 21.2 °F 15.8 °F 59% 30.35 in 10.0 mi NNW 6.9 mph - N/A   Clear
6:55 AM 28.4 °F 21.2 °F 15.8 °F 59% 30.35 in 10.0 mi NW 6.9 mph - N/A   Clear
7:15 AM 28.4 °F 19.7 °F 15.8 °F 59% 30.37 in 10.0 mi NW 9.2 mph - N/A   Clear
7:35 AM 30.2 °F 22.6 °F 14.0 °F 51% 30.38 in 10.0 mi NW 8.1 mph - N/A   Clear
7:55 AM 30.2 °F 23.4 °F 15.8 °F 55% 30.39 in 10.0 mi NW 6.9 mph - N/A   Clear
8:15 AM 30.2 °F 20.8 °F 14.0 °F 51% 30.40 in 10.0 mi North 11.5 mph 17.3 mph N/A   Clear
8:35 AM 30.2 °F 21.9 °F 12.2 °F 47% 30.41 in 10.0 mi NNW 9.2 mph - N/A   Clear
8:55 AM 32.0 °F 24.8 °F 14.0 °F 48% 30.41 in 10.0 mi North 8.1 mph - N/A   Clear
9:15 AM 32.0 °F 24.8 °F 15.8 °F 51% 30.43 in 10.0 mi NNW 8.1 mph - N/A   Clear
9:35 AM 33.8 °F 27.7 °F 15.8 °F 48% 30.43 in 10.0 mi North 6.9 mph 16.1 mph N/A   Clear
9:55 AM 33.8 °F 27.7 °F 15.8 °F 48% 30.44 in 10.0 mi NNW 6.9 mph - N/A   Clear
10:15 AM 35.6 °F 28.0 °F 15.8 °F 44% 30.43 in 10.0 mi NW 10.4 mph - N/A   Clear
10:35 AM 33.8 °F 27.7 °F 15.8 °F 48% 30.44 in 10.0 mi NW 6.9 mph - N/A   Clear
10:55 AM 35.6 °F 27.5 °F 15.8 °F 44% 30.44 in 10.0 mi NW 11.5 mph - N/A   Clear
11:15 AM 35.6 °F 29.9 °F 12.2 °F 38% 30.43 in 10.0 mi NNW 6.9 mph - N/A   Clear
11:35 AM 37.4 °F 31.4 °F 12.2 °F 36% 30.43 in 10.0 mi NW 8.1 mph - N/A   Clear
12:15 PM 37.4 °F 33.8 °F 12.2 °F 36% 30.41 in 10.0 mi NNW 4.6 mph - N/A   Clear
12:35 PM 39.2 °F 33.6 °F 14.0 °F 36% 30.41 in 10.0 mi NNW 8.1 mph - N/A   Clear
1:15 PM 39.2 °F 32.0 °F 10.4 °F 31% 30.41 in 10.0 mi NW 11.5 mph 17.3 mph N/A   Clear
1:35 PM 39.2 °F 32.0 °F 8.6 °F 28% 30.40 in 10.0 mi NNW 11.5 mph 17.3 mph N/A   Clear
1:55 PM 39.2 °F 33.0 °F 10.4 °F 31% 30.40 in 10.0 mi North 9.2 mph - N/A   Clear
2:15 PM 39.2 °F 35.0 °F 10.4 °F 31% 30.40 in 10.0 mi NW 5.8 mph - N/A   Clear
2:35 PM 39.2 °F 33.6 °F 12.2 °F 33% 30.39 in 10.0 mi NW 8.1 mph - N/A   Clear
2:55 PM 39.2 °F 33.6 °F 10.4 °F 31% 30.38 in 10.0 mi NNW 8.1 mph - N/A   Clear
3:15 PM 39.2 °F 33.0 °F 8.6 °F 28% 30.38 in 10.0 mi NNW 9.2 mph - N/A   Clear
3:35 PM 39.2 °F 32.0 °F 8.6 °F 28% 30.38 in 10.0 mi NNW 11.5 mph - N/A   Clear
3:55 PM 39.2 °F 33.6 °F 8.6 °F 28% 30.39 in 10.0 mi NW 8.1 mph - N/A   Clear
4:15 PM 39.2 °F 35.0 °F 10.4 °F 31% 30.39 in 10.0 mi NNW 5.8 mph - N/A   Clear
4:35 PM 39.2 °F 34.2 °F 8.6 °F 28% 30.39 in 10.0 mi North 6.9 mph - N/A   Clear
5:15 PM 35.6 °F 31.7 °F 10.4 °F 35% 30.38 in 10.0 mi North 4.6 mph - N/A   Clear
5:35 PM 35.6 °F 32.8 °F 10.4 °F 35% 30.38 in 10.0 mi North 3.5 mph - N/A   Clear
5:55 PM 35.6 °F - 10.4 °F 35% 30.39 in 10.0 mi Calm Calm - N/A   Clear
6:15 PM 33.8 °F - 12.2 °F 41% 30.39 in 10.0 mi Calm Calm - N/A   Clear
6:35 PM 30.2 °F - 17.6 °F 60% 30.39 in 10.0 mi Calm Calm - N/A   Clear
6:55 PM 30.2 °F - 15.8 °F 55% 30.38 in 10.0 mi Calm Calm - N/A   Clear
7:15 PM 30.2 °F 26.7 °F 15.8 °F 55% 30.38 in 10.0 mi North 3.5 mph - N/A   Clear
7:35 PM 28.4 °F - 17.6 °F 64% 30.38 in 10.0 mi Calm Calm - N/A   Clear
7:55 PM 28.4 °F - 17.6 °F 64% 30.38 in 10.0 mi Calm Calm - N/A   Clear
8:15 PM 28.4 °F - 17.6 °F 64% 30.38 in 10.0 mi Calm Calm - N/A   Clear
8:35 PM 28.4 °F - 15.8 °F 59% 30.38 in 10.0 mi Calm Calm - N/A   Clear
8:55 PM 26.6 °F - 17.6 °F 69% 30.38 in 10.0 mi Calm Calm - N/A   Clear
9:15 PM 28.4 °F - 15.8 °F 59% 30.39 in 10.0 mi Calm Calm - N/A   Clear
9:35 PM 26.6 °F 22.6 °F 17.6 °F 69% 30.40 in 10.0 mi West 3.5 mph - N/A   Clear
9:55 PM 26.6 °F - 17.6 °F 69% 30.39 in 10.0 mi Calm Calm - N/A   Clear
10:15 PM 26.6 °F - 17.6 °F 69% 30.39 in 10.0 mi Calm Calm - N/A   Clear
10:35 PM 26.6 °F - 17.6 °F 69% 30.39 in 10.0 mi Calm Calm - N/A   Clear
10:55 PM 24.8 °F - 17.6 °F 74% 30.38 in 10.0 mi Calm Calm - N/A   Clear
11:15 PM 24.8 °F - 17.6 °F 74% 30.37 in 10.0 mi Calm Calm - N/A   Clear
11:35 PM 24.8 °F - 17.6 °F 74% 30.37 in 10.0 mi Calm Calm - N/A   Clear
11:55 PM 24.8 °F 20.5 °F 17.6 °F 74% 30.37 in 10.0 mi West 3.5 mph - N/A   Clear